EW4883 Weather Reports


Display with metric or nautical units.
time (UTC)temp
F
wind
direction
speed
MPH
gust
MPH
rain 1hr
in
rain 24hr
in
rain mn
in
humidity
%
barometer
mb
20260831063550 84 0 1.0 2.0 0.00 0.00 0.00 47 1014.8
20260831063102 84 360 0.0 2.0 0.00 0.00 0.00 48 1014.9
20260831062552 84 0 0.0 2.0 0.00 0.00 0.00 47 1014.9
20260831062049 84 0 0.0 3.0 0.00 0.00 0.00 48 1014.8
20260831061600 84 0 0.0 3.0 0.00 0.00 0.00 48 1014.9
20260831061050 84 360 0.0 4.0 0.00 0.00 0.00 48 1014.8
20260831060549 84 0 0.0 4.0 0.00 0.00 0.00 48 1014.8
20260831060115 84 360 1.0 3.0 0.00 0.00 0.00 47 1014.9
20260831055549 84 0 0.0 5.0 0.00 0.00 0.00 47 1014.7
20260831055050 85 0 0.0 8.0 0.00 0.00 0.00 47 1014.7
20260831054554 85 360 3.0 8.0 0.00 0.00 0.00 46 1014.5
20260831054051 85 360 3.0 9.0 0.00 0.00 0.00 46 1014.6
20260831053550 85 360 3.0 9.0 0.00 0.00 0.00 45 1014.5
20260831053101 86 360 2.0 6.0 0.00 0.00 0.00 44 1014.4
20260831052551 86 0 3.0 6.0 0.00 0.00 0.00 44 1014.4
20260831052050 87 360 2.0 10.0 0.00 0.00 0.00 42 1014.3
20260831051555 87 360 4.0 12.0 0.00 0.00 0.00 43 1014.3
20260831051049 88 360 3.0 15.0 0.00 0.00 0.00 45 1014.1
20260831050549 87 360 6.0 15.0 0.00 0.00 0.00 45 1014.0
20260831050141 87 360 7.0 15.0 0.00 0.00 0.00 44 1014.0
20260831045549 88 360 9.0 15.0 0.00 0.00 0.00 44 1014.0
20260831045050 88 360 9.0 15.0 0.00 0.00 0.00 44 1013.9
20260831044604 88 360 8.0 18.0 0.00 0.00 0.00 43 1013.8
20260831044055 88 360 11.0 18.0 0.00 0.00 0.00 43 1013.9
20260831043551 88 360 10.0 23.0 0.00 0.00 0.00 43 1014.0
20260831043108 88 360 8.0 23.0 0.00 0.00 0.00 43 1014.0
20260831042551 88 360 10.0 18.0 0.00 0.00 0.00 43 1014.0
20260831042053 88 360 8.0 18.0 0.00 0.00 0.00 43 1013.9
20260831041607 88 360 11.0 18.0 0.00 0.00 0.00 43 1014.0
20260831041052 88 360 11.0 19.0 0.00 0.00 0.00 43 1013.9
20260831040552 88 360 11.0 22.0 0.00 0.00 0.00 42 1013.9
20260831040110 88 360 12.0 22.0 0.00 0.00 0.00 42 1013.8
20260831035553 88 360 12.0 22.0 0.00 0.00 0.00 41 1013.6
20260831035052 88 360 11.0 19.0 0.00 0.00 0.00 40 1013.6
20260831034612 88 360 10.0 19.0 0.00 0.00 0.00 40 1013.6
20260831034052 88 360 10.0 19.0 0.00 0.00 0.00 40 1013.5
20260831033552 88 360 10.0 21.0 0.00 0.00 0.00 40 1013.3
20260831033103 89 360 10.0 21.0 0.00 0.00 0.00 40 1013.3
20260831032552 89 360 10.0 20.0 0.00 0.00 0.00 40 1013.4
20260831032055 89 360 11.0 20.0 0.00 0.00 0.00 40 1013.2
20260831031606 89 360 10.0 24.0 0.00 0.00 0.00 40 1013.0
20260831031051 89 360 13.0 24.0 0.00 0.00 0.00 40 1013.1
20260831030552 89 360 12.0 21.0 0.00 0.00 0.00 40 1013.1
20260831030106 89 360 11.0 21.0 0.00 0.00 0.00 39 1013.1
20260831025551 89 360 10.0 20.0 0.00 0.00 0.00 38 1013.0
20260831025051 89 360 7.0 20.0 0.00 0.00 0.00 38 1012.9
20260831024605 90 360 10.0 22.0 0.00 0.00 0.00 38 1013.0
20260831024052 90 360 8.0 22.0 0.00 0.00 0.00 38 1012.9
20260831023551 90 360 10.0 20.0 0.00 0.00 0.00 37 1012.9
20260831023104 91 360 8.0 20.0 0.00 0.00 0.00 36 1012.7
20260831022554 91 360 8.0 20.0 0.00 0.00 0.00 35 1012.5
20260831022052 92 360 3.0 10.0 0.00 0.00 0.00 34 1012.4
20260831021604 92 360 4.0 10.0 0.00 0.00 0.00 34 1012.1
20260831021052 92 360 3.0 9.0 0.00 0.00 0.00 34 1012.1
20260831020552 93 360 2.0 9.0 0.00 0.00 0.00 34 1012.1
20260831020108 93 360 5.0 9.0 0.00 0.00 0.00 34 1012.0
20260831015551 93 360 3.0 10.0 0.00 0.00 0.00 34 1012.0
20260831015052 93 244 4.0 10.0 0.00 0.00 0.00 33 1011.9
20260831014601 94 261 3.0 9.0 0.00 0.00 0.00 33 1012.0
20260831014052 94 264 2.0 9.0 0.00 0.00 0.00 32 1011.9
20260831013552 94 280 4.0 9.0 0.00 0.00 0.00 32 1011.9
20260831013106 94 273 2.0 6.0 0.00 0.00 0.00 32 1011.8
20260831012550 94 299 1.0 7.0 0.00 0.00 0.00 32 1011.8
20260831012050 94 300 2.0 7.0 0.00 0.00 0.00 32 1011.9
20260831011604 95 313 1.0 6.0 0.00 0.00 0.00 32 1011.8
20260831011049 95 317 2.0 6.0 0.00 0.00 0.00 31 1011.8
20260831010549 95 352 2.0 5.0 0.00 0.00 0.00 31 1011.7
20260831005550 95 0 2.0 8.0 0.00 0.00 0.00 31 1011.8
20260831005051 95 336 2.0 8.0 0.00 0.00 0.00 30 1011.7
20260831004614 96 336 3.0 10.0 0.00 0.00 0.00 30 1011.7
20260831004052 96 301 2.0 10.0 0.00 0.00 0.00 30 1011.6
20260831003549 96 322 3.0 10.0 0.00 0.00 0.00 30 1011.6
20260831003105 96 321 3.0 10.0 0.00 0.00 0.00 29 1011.7
20260831002550 97 337 2.0 6.0 0.00 0.00 0.00 29 1011.8
20260831002052 97 293 1.0 6.0 0.00 0.00 0.00 29 1011.7
20260831001600 97 0 0.0 11.0 0.00 0.00 0.00 28 1011.7
20260831001052 97 290 5.0 12.0 0.00 0.00 0.00 27 1011.9
20260831000549 98 242 3.0 12.0 0.00 0.00 0.00 27 1011.8
20260830235551 98 10 3.0 8.0 0.00 0.00 0.00 28 1011.7
20260830235050 98 300 3.0 8.0 0.00 0.00 0.00 28 1011.7
20260830234612 98 322 3.0 8.0 0.00 0.00 0.00 27 1011.7
20260830234049 98 344 2.0 8.0 0.00 0.00 0.00 28 1011.7
20260830233549 97 325 3.0 12.0 0.00 0.00 0.00 28 1011.6
20260830233108 97 15 2.0 12.0 0.00 0.00 0.00 29 1011.7
20260830232552 97 310 3.0 9.0 0.00 0.00 0.00 28 1011.9
20260830232054 98 347 3.0 9.0 0.00 0.00 0.00 28 1011.8
20260830231600 97 21 2.0 11.0 0.00 0.00 0.00 28 1011.9
20260830231051 97 13 3.0 11.0 0.00 0.00 0.00 29 1012.0
20260830230548 96 331 5.0 11.0 0.00 0.00 0.00 29 1012.1
20260830230056 96 306 2.0 8.0 0.00 0.00 0.00 29 1012.1
20260830225555 96 28 2.0 5.0 0.00 0.00 0.00 29 1012.3
20260830225053 96 73 1.0 5.0 0.00 0.00 0.00 30 1012.4
20260830224606 97 0 3.0 8.0 0.00 0.00 0.00 29 1012.5
20260830224049 97 351 2.0 8.0 0.00 0.00 0.00 29 1012.6
20260830223549 98 348 3.0 9.0 0.00 0.00 0.00 29 1012.6
20260830223102 98 254 4.0 9.0 0.00 0.00 0.00 29 1012.7
20260830222550 98 268 2.0 8.0 0.00 0.00 0.00 29 1012.9
20260830222049 98 294 2.0 9.0 0.00 0.00 0.00 29 1013.0
20260830221600 98 265 3.0 10.0 0.00 0.00 0.00 29 1013.0
20260830221051 97 255 6.0 10.0 0.00 0.00 0.00 29 1013.0
20260830220552 98 295 3.0 9.0 0.00 0.00 0.00 30 1013.1
20260830220104 98 21 2.0 9.0 0.00 0.00 0.00 29 1013.2
20260830215551 99 311 3.0 9.0 0.00 0.00 0.00 29 1013.3
20260830215053 99 340 1.0 12.0 0.00 0.00 0.00 29 1013.3
20260830214600 99 267 5.0 12.0 0.00 0.00 0.00 29 1013.5
20260830214054 98 271 3.0 12.0 0.00 0.00 0.00 29 1013.6
20260830213548 99 248 3.0 11.0 0.00 0.00 0.00 28 1013.6
20260830213107 99 31 3.0 10.0 0.00 0.00 0.00 28 1013.6
20260830212552 99 252 5.0 10.0 0.00 0.00 0.00 28 1013.7
20260830212049 99 288 5.0 10.0 0.00 0.00 0.00 29 1013.8
20260830211601 98 13 2.0 8.0 0.00 0.00 0.00 30 1013.9
20260830211048 97 331 1.0 7.0 0.00 0.00 0.00 30 1013.9
20260830210551 97 69 4.0 10.0 0.00 0.00 0.00 30 1014.1
20260830210104 99 17 5.0 10.0 0.00 0.00 0.00 29 1014.1
20260830205552 98 300 2.0 11.0 0.00 0.00 0.00 30 1014.2
20260830205052 98 308 5.0 11.0 0.00 0.00 0.00 30 1014.4
20260830204614 97 240 3.0 9.0 0.00 0.00 0.00 31 1014.3
20260830204052 97 265 3.0 8.0 0.00 0.00 0.00 31 1014.6
20260830203549 96 0 2.0 8.0 0.00 0.00 0.00 32 1014.6
20260830203107 96 294 3.0 8.0 0.00 0.00 0.00 32 1014.7
20260830202553 96 29 0.0 9.0 0.00 0.00 0.00 32 1014.7
20260830202050 96 34 3.0 9.0 0.00 0.00 0.00 32 1014.9
20260830201628 96 60 3.0 8.0 0.00 0.00 0.00 31 1015.0
20260830201048 96 121 1.0 11.0 0.00 0.00 0.00 31 1015.0
20260830200551 96 37 5.0 11.0 0.00 0.00 0.00 31 1015.0
20260830200107 97 12 5.0 10.0 0.00 0.00 0.00 31 1015.0
20260830195553 96 73 2.0 7.0 0.00 0.00 0.00 32 1015.1
20260830195051 96 126 2.0 9.0 0.00 0.00 0.00 32 1015.2
20260830194559 95 236 2.0 10.0 0.00 0.00 0.00 33 1015.2
20260830194052 95 126 3.0 11.0 0.00 0.00 0.00 32 1015.4
20260830193556 96 54 4.0 11.0 0.00 0.00 0.00 32 1015.4
20260830193105 95 144 3.0 12.0 0.00 0.00 0.00 33 1015.4
20260830192551 95 62 4.0 12.0 0.00 0.00 0.00 33 1015.7
20260830192053 95 58 5.0 12.0 0.00 0.00 0.00 34 1015.7
20260830191627 94 55 4.0 11.0 0.00 0.00 0.00 33 1015.8
20260830191048 94 24 2.0 10.0 0.00 0.00 0.00 34 1015.9
20260830190551 94 140 6.0 11.0 0.00 0.00 0.00 34 1016.0
20260830190113 94 62 4.0 12.0 0.00 0.00 0.00 34 1016.0
20260830185552 94 63 6.0 12.0 0.00 0.00 0.00 34 1016.2
20260830185051 94 102 6.0 12.0 0.00 0.00 0.00 34 1016.2
20260830184559 94 32 4.0 12.0 0.00 0.00 0.00 34 1016.2
20260830184048 94 113 8.0 12.0 0.00 0.00 0.00 34 1016.3
20260830183548 95 81 5.0 12.0 0.00 0.00 0.00 34 1016.3
20260830183104 94 111 3.0 12.0 0.00 0.00 0.00 34 1016.4
20260830182552 94 63 6.0 11.0 0.00 0.00 0.00 34 1016.4
20260830182052 94 103 5.0 10.0 0.00 0.00 0.00 35 1016.5
20260830181603 93 0 3.0 10.0 0.00 0.00 0.00 35 1016.6
20260830181054 93 52 4.0 10.0 0.00 0.00 0.00 36 1016.6
20260830180554 93 69 4.0 10.0 0.00 0.00 0.00 37 1016.7
20260830175552 92 94 6.0 12.0 0.00 0.00 0.00 38 1016.8
20260830175049 92 58 4.0 13.0 0.00 0.00 0.00 37 1016.7
20260830174608 91 94 6.0 13.0 0.00 0.00 0.00 38 1016.7
20260830174051 92 80 4.0 9.0 0.00 0.00 0.00 37 1016.7
20260830173554 91 91 3.0 10.0 0.00 0.00 0.00 37 1016.8
20260830173108 91 103 4.0 12.0 0.00 0.00 0.00 37 1016.8
20260830172551 91 87 4.0 12.0 0.00 0.00 0.00 37 1016.8
20260830172053 91 79 4.0 12.0 0.00 0.00 0.00 39 1016.9
20260830171603 91 89 5.0 10.0 0.00 0.00 0.00 38 1016.9
20260830171052 91 69 4.0 11.0 0.00 0.00 0.00 37 1017.0
20260830170551 91 83 4.0 11.0 0.00 0.00 0.00 38 1017.0
20260830170059 90 80 4.0 10.0 0.00 0.00 0.00 38 1017.0
20260830165551 90 121 5.0 11.0 0.00 0.00 0.00 38 1017.1
20260830165051 90 62 7.0 11.0 0.00 0.00 0.00 38 1017.1
20260830164603 90 79 6.0 11.0 0.00 0.00 0.00 38 1017.0
20260830164051 90 91 6.0 11.0 0.00 0.00 0.00 37 1017.1
20260830163549 91 77 3.0 9.0 0.00 0.00 0.00 37 1017.0
20260830163058 90 57 4.0 9.0 0.00 0.00 0.00 38 1017.1
20260830162553 91 78 2.0 8.0 0.00 0.00 0.00 38 1017.1
20260830162049 90 0 3.0 9.0 0.00 0.00 0.00 39 1017.2
20260830161611 89 84 2.0 9.0 0.00 0.00 0.00 40 1017.2
20260830161051 89 117 3.0 10.0 0.00 0.00 0.00 40 1017.2
20260830160555 89 119 4.0 10.0 0.00 0.00 0.00 41 1017.2
20260830160105 88 157 3.0 9.0 0.00 0.00 0.00 41 1017.2
20260830155551 88 0 4.0 9.0 0.00 0.00 0.00 42 1017.3
20260830155051 87 135 3.0 7.0 0.00 0.00 0.00 42 1017.2
20260830154607 87 123 2.0 8.0 0.00 0.00 0.00 42 1017.2
20260830154049 87 163 2.0 8.0 0.00 0.00 0.00 44 1017.2
20260830153551 86 171 4.0 9.0 0.00 0.00 0.00 43 1017.3
20260830153101 86 134 4.0 10.0 0.00 0.00 0.00 44 1017.3
20260830152551 86 132 4.0 12.0 0.00 0.00 0.00 45 1017.3
20260830152052 85 130 5.0 12.0 0.00 0.00 0.00 45 1017.3
20260830151603 85 111 4.0 9.0 0.00 0.00 0.00 46 1017.3
20260830151049 85 131 3.0 8.0 0.00 0.00 0.00 46 1017.3
20260830150553 84 360 3.0 8.0 0.00 0.00 0.00 48 1017.3
20260830150106 84 360 3.0 8.0 0.00 0.00 0.00 48 1017.5
20260830145552 83 360 2.0 6.0 0.00 0.00 0.00 49 1017.4
20260830145055 83 360 3.0 6.0 0.00 0.00 0.00 49 1017.4
20260830144609 83 360 2.0 10.0 0.00 0.00 0.00 51 1017.3
20260830144049 82 360 5.0 10.0 0.00 0.00 0.00 51 1017.3
20260830143552 82 360 3.0 9.0 0.00 0.00 0.00 51 1017.3
20260830143108 82 360 4.0 8.0 0.00 0.00 0.00 51 1017.3
20260830142552 82 360 3.0 8.0 0.00 0.00 0.00 51 1017.4
20260830142052 82 360 4.0 9.0 0.00 0.00 0.00 51 1017.4
20260830141559 82 360 3.0 10.0 0.00 0.00 0.00 51 1017.4
20260830141048 82 360 5.0 10.0 0.00 0.00 0.00 51 1017.4
20260830140551 82 360 5.0 10.0 0.00 0.00 0.00 50 1017.4
20260830140107 82 360 3.0 9.0 0.00 0.00 0.00 50 1017.4
20260830135552 82 360 3.0 9.0 0.00 0.00 0.00 49 1017.4
20260830135049 82 360 3.0 10.0 0.00 0.00 0.00 49 1017.3
20260830134555 82 360 1.0 10.0 0.00 0.00 0.00 49 1017.2
20260830134050 82 360 3.0 15.0 0.00 0.00 0.00 49 1017.2
20260830133550 82 360 3.0 15.0 0.00 0.00 0.00 49 1017.2
20260830133106 82 360 4.0 15.0 0.00 0.00 0.00 48 1017.2
20260830132551 82 360 4.0 13.0 0.00 0.00 0.00 50 1017.2
20260830132051 81 360 3.0 13.0 0.00 0.00 0.00 50 1017.1
20260830131603 81 360 2.0 11.0 0.00 0.00 0.00 51 1017.1
20260830131052 81 360 4.0 11.0 0.00 0.00 0.00 51 1017.2
20260830130551 80 360 0.0 1.0 0.00 0.00 0.00 51 1017.1
20260830130119 80 0 0.0 2.0 0.00 0.00 0.00 51 1017.1
20260830125551 80 0 0.0 3.0 0.00 0.00 0.00 50 1017.1
20260830125050 81 0 0.0 3.0 0.00 0.00 0.00 50 1016.9
20260830124605 81 360 0.0 3.0 0.00 0.00 0.00 50 1016.8
20260830124053 81 0 0.0 3.0 0.00 0.00 0.00 49 1016.9
20260830123552 81 0 0.0 5.0 0.00 0.00 0.00 48 1016.8
20260830123103 81 360 2.0 5.0 0.00 0.00 0.00 48 1016.7
20260830122552 82 360 2.0 4.0 0.00 0.00 0.00 47 1016.5
20260830122051 82 0 1.0 5.0 0.00 0.00 0.00 47 1016.4
20260830121601 82 360 1.0 8.0 0.00 0.00 0.00 46 1016.5
20260830121053 83 360 4.0 8.0 0.00 0.00 0.00 46 1016.5
20260830120553 83 360 2.0 8.0 0.00 0.00 0.00 46 1016.6
20260830120113 83 360 1.0 9.0 0.00 0.00 0.00 45 1016.6
20260830115552 83 360 2.0 11.0 0.00 0.00 0.00 45 1016.6
20260830115053 83 360 4.0 11.0 0.00 0.00 0.00 44 1016.4
20260830114604 83 360 5.0 11.0 0.00 0.00 0.00 45 1016.3
20260830114052 82 360 4.0 9.0 0.00 0.00 0.00 45 1016.3
20260830113550 82 360 4.0 9.0 0.00 0.00 0.00 48 1016.1
20260830113100 82 360 3.0 8.0 0.00 0.00 0.00 48 1015.9
20260830112550 81 360 3.0 10.0 0.00 0.00 0.00 48 1015.6
20260830112051 81 360 4.0 12.0 0.00 0.00 0.00 50 1015.5
20260830111559 81 360 2.0 12.0 0.00 0.00 0.00 52 1015.7
20260830111051 81 360 5.0 11.0 0.00 0.00 0.00 52 1015.7
20260830110551 81 360 6.0 11.0 0.00 0.00 0.00 52 1015.8
20260830110059 81 360 3.0 6.0 0.00 0.00 0.00 52 1015.7
20260830105550 81 360 2.0 5.0 0.00 0.00 0.00 52 1015.8
20260830105050 81 360 2.0 9.0 0.00 0.00 0.00 52 1015.9
20260830104606 81 360 3.0 9.0 0.00 0.00 0.00 52 1016.0
20260830104051 81 360 2.0 9.0 0.00 0.00 0.00 52 1016.0
20260830103551 81 360 2.0 9.0 0.00 0.00 0.00 51 1015.9
20260830103104 81 360 4.0 9.0 0.00 0.00 0.00 51 1015.8
20260830102551 82 360 4.0 8.0 0.00 0.00 0.00 50 1015.8
20260830102052 82 360 2.0 6.0 0.00 0.00 0.00 49 1015.7
20260830101623 82 360 1.0 8.0 0.00 0.00 0.00 48 1015.5
20260830101051 83 360 3.0 8.0 0.00 0.00 0.00 47 1015.5
20260830100552 83 360 3.0 8.0 0.00 0.00 0.00 47 1015.4
20260830100130 83 360 3.0 8.0 0.00 0.00 0.00 46 1015.3
20260830095555 83 360 3.0 6.0 0.00 0.00 0.00 45 1015.2
20260830095053 83 360 2.0 6.0 0.00 0.00 0.00 45 1015.1
20260830094602 83 360 2.0 6.0 0.00 0.00 0.00 45 1015.1
20260830094052 84 360 2.0 6.0 0.00 0.00 0.00 44 1015.1
20260830093554 84 360 3.0 6.0 0.00 0.00 0.00 44 1015.0
20260830093059 84 360 3.0 6.0 0.00 0.00 0.00 44 1014.9
20260830092554 84 360 3.0 6.0 0.00 0.00 0.00 44 1014.9
20260830092053 84 360 3.0 6.0 0.00 0.00 0.00 44 1014.8
20260830091606 84 360 2.0 6.0 0.00 0.00 0.00 44 1014.8
20260830091055 84 0 2.0 5.0 0.00 0.00 0.00 44 1014.9
20260830090551 84 360 2.0 5.0 0.00 0.00 0.00 44 1014.7
20260830090103 84 360 1.0 5.0 0.00 0.00 0.00 44 1014.5
20260830085550 84 360 2.0 5.0 0.00 0.00 0.00 44 1014.6
20260830085052 84 360 1.0 5.0 0.00 0.00 0.00 44 1014.7
20260830084605 84 360 1.0 5.0 0.00 0.00 0.00 44 1014.7
20260830084050 84 360 2.0 5.0 0.00 0.00 0.00 44 1014.8
20260830083549 84 360 2.0 6.0 0.00 0.00 0.00 44 1014.7
20260830083107 83 360 1.0 8.0 0.00 0.00 0.00 45 1014.8
20260830082551 83 360 3.0 8.0 0.00 0.00 0.00 45 1015.0
20260830082055 83 360 3.0 6.0 0.00 0.00 0.00 45 1015.0
20260830081555 83 360 3.0 6.0 0.00 0.00 0.00 45 1015.0
20260830081052 82 360 2.0 4.0 0.00 0.00 0.00 46 1015.0
20260830080550 82 360 1.0 3.0 0.00 0.00 0.00 47 1015.0
20260830075551 82 0 0.0 1.0 0.00 0.00 0.00 47 1015.0
20260830075051 82 0 0.0 1.0 0.00 0.00 0.00 48 1015.1
20260830074603 82 0 0.0 1.0 0.00 0.00 0.00 47 1015.0
20260830074052 83 360 0.0 1.0 0.00 0.00 0.00 47 1014.9
20260830073555 83 0 0.0 0.0 0.00 0.00 0.00 46 1014.9
20260830073059 83 0 0.0 3.0 0.00 0.00 0.00 46 1015.0
20260830072551 83 0 0.0 4.0 0.00 0.00 0.00 46 1015.1
20260830072051 83 360 1.0 5.0 0.00 0.00 0.00 46 1014.9
20260830071611 83 360 2.0 5.0 0.00 0.00 0.00 46 1014.8
20260830071053 83 360 1.0 4.0 0.00 0.00 0.00 46 1014.7
20260830070553 83 360 0.0 5.0 0.00 0.00 0.00 46 1014.6
20260830070113 83 360 2.0 5.0 0.00 0.00 0.00 46 1014.6
20260830065552 83 360 1.0 6.0 0.00 0.00 0.00 46 1014.7
20260830065052 83 0 2.0 6.0 0.00 0.00 0.00 46 1014.7
20260830064602 83 360 2.0 6.0 0.00 0.00 0.00 46 1014.5
20260830064052 83 360 2.0 5.0 0.00 0.00 0.00 47 1014.4